DAL2016 KSLC-KSEA

Flight info

Callsign DAL2016
Flight time N/A
Altitude 36000
Route CGULL1 TWF BOI J163 HOVEL PDT CHINS5
Aircraft A321/M-SDE3FGHIRWY/LB1

Departure

Time N/A
Airport Salt Lake City International Airport (KSLC)

Arrival

Time 2026-05-08 05:30
Airport Seattle–Tacoma International Airport (KSEA)
Time Latitude Longitude Altitude Speed Heading
2026-05-08 05:05 46.65672 -120.62519 33195 ft 409 kts 303°
2026-05-08 05:05 46.67268 -120.65918 32664 ft 405 kts 303°
2026-05-08 05:06 46.68867 -120.69283 32118 ft 403 kts 303°
2026-05-08 05:06 46.70461 -120.72623 31574 ft 400 kts 303°
2026-05-08 05:06 46.72044 -120.75944 31041 ft 398 kts 303°
2026-05-08 05:06 46.73618 -120.79253 30515 ft 396 kts 303°
2026-05-08 05:07 46.75182 -120.82545 29987 ft 394 kts 303°
2026-05-08 05:07 46.76732 -120.85824 29423 ft 391 kts 303°
2026-05-08 05:07 46.78241 -120.89030 28922 ft 386 kts 303°
2026-05-08 05:07 46.79751 -120.92240 28418 ft 382 kts 303°
2026-05-08 05:08 46.81247 -120.95421 27955 ft 378 kts 303°
2026-05-08 05:08 46.82728 -120.98570 27467 ft 374 kts 303°
2026-05-08 05:08 46.84197 -121.01690 26987 ft 371 kts 303°
2026-05-08 05:08 46.85649 -121.04775 26522 ft 367 kts 303°
2026-05-08 05:09 46.87084 -121.07833 26059 ft 364 kts 302°
2026-05-08 05:09 46.88506 -121.10874 25619 ft 360 kts 302°
2026-05-08 05:09 46.89915 -121.13887 25184 ft 357 kts 302°
2026-05-08 05:09 46.91307 -121.16859 24762 ft 353 kts 302°
2026-05-08 05:10 46.92692 -121.19818 24360 ft 351 kts 302°
2026-05-08 05:10 46.95424 -121.25677 23481 ft 346 kts 302°
2026-05-08 05:10 46.96776 -121.28577 23019 ft 342 kts 302°
2026-05-08 05:11 46.98107 -121.31432 22625 ft 338 kts 302°
2026-05-08 05:11 46.99429 -121.34272 22193 ft 335 kts 302°
2026-05-08 05:11 47.00733 -121.37087 21773 ft 332 kts 302°
2026-05-08 05:11 47.02026 -121.39884 21362 ft 330 kts 302°
2026-05-08 05:12 47.03305 -121.42654 20940 ft 327 kts 302°
2026-05-08 05:12 47.04577 -121.45404 20530 ft 325 kts 302°
2026-05-08 05:12 47.05841 -121.48137 20108 ft 323 kts 302°
2026-05-08 05:12 47.07101 -121.50861 19698 ft 322 kts 302°
2026-05-08 05:13 47.08355 -121.53574 19264 ft 321 kts 302°
2026-05-08 05:13 47.09603 -121.56278 18870 ft 319 kts 302°
2026-05-08 05:13 47.10846 -121.58981 18459 ft 319 kts 302°
2026-05-08 05:13 47.12088 -121.61678 18000 ft 318 kts 302°
2026-05-08 05:14 47.13324 -121.64364 17585 ft 316 kts 302°
2026-05-08 05:14 47.14552 -121.67036 17118 ft 316 kts 302°
2026-05-08 05:14 47.15775 -121.69704 16703 ft 315 kts 302°
2026-05-08 05:14 47.16980 -121.72330 16311 ft 313 kts 302°
2026-05-08 05:15 47.18193 -121.74977 15921 ft 312 kts 302°
2026-05-08 05:15 47.19400 -121.77619 15528 ft 310 kts 302°
2026-05-08 05:15 47.20598 -121.80249 15144 ft 309 kts 302°
2026-05-08 05:15 47.21799 -121.82885 14828 ft 313 kts 302°
2026-05-08 05:16 47.23038 -121.85609 14575 ft 324 kts 302°
2026-05-08 05:16 47.24297 -121.88379 14293 ft 326 kts 302°
2026-05-08 05:16 47.25560 -121.91152 14014 ft 326 kts 302°
2026-05-08 05:16 47.26822 -121.93921 13720 ft 325 kts 302°
2026-05-08 05:17 47.28079 -121.96687 13432 ft 324 kts 302°
2026-05-08 05:17 47.29326 -121.99440 13160 ft 322 kts 302°
2026-05-08 05:17 47.30573 -122.02191 12887 ft 321 kts 302°
2026-05-08 05:17 47.31811 -122.04919 12614 ft 320 kts 302°
2026-05-08 05:18 47.33041 -122.07631 12359 ft 312 kts 302°
2026-05-08 05:18 47.34209 -122.10198 12041 ft 293 kts 304°
2026-05-08 05:18 47.35589 -122.12414 12010 ft 296 kts 320°
2026-05-08 05:18 47.37331 -122.13976 12005 ft 299 kts 336°
2026-05-08 05:19 47.39347 -122.14752 12002 ft 302 kts 353°
2026-05-08 05:19 47.41458 -122.14882 11999 ft 303 kts 356°
2026-05-08 05:19 47.43568 -122.14987 12002 ft 304 kts 356°
2026-05-08 05:19 47.45696 -122.15099 11529 ft 311 kts 356°
2026-05-08 05:20 47.47872 -122.15216 10940 ft 313 kts 356°
2026-05-08 05:20 47.50006 -122.15331 10505 ft 301 kts 356°
2026-05-08 05:20 47.52076 -122.15444 10054 ft 296 kts 356°
2026-05-08 05:20 47.54126 -122.15557 9566 ft 293 kts 356°
2026-05-08 05:21 47.56137 -122.15665 9005 ft 284 kts 356°
2026-05-08 05:21 47.58086 -122.15770 8443 ft 278 kts 356°
2026-05-08 05:21 47.60010 -122.15877 7893 ft 275 kts 356°
2026-05-08 05:21 47.61913 -122.15983 7364 ft 271 kts 356°
2026-05-08 05:22 47.63774 -122.16084 6827 ft 263 kts 356°
2026-05-08 05:22 47.65559 -122.16181 6341 ft 252 kts 356°
2026-05-08 05:22 47.67286 -122.16276 5762 ft 245 kts 357°
2026-05-08 05:22 47.68937 -122.16472 5323 ft 238 kts 345°
2026-05-08 05:23 47.70341 -122.17651 4958 ft 232 kts 312°
2026-05-08 05:23 47.71079 -122.19749 4565 ft 227 kts 279°
2026-05-08 05:23 47.71117 -122.22029 4246 ft 222 kts 266°
2026-05-08 05:23 47.71016 -122.24298 3986 ft 218 kts 265°
2026-05-08 05:24 47.70767 -122.26508 3860 ft 217 kts 246°
2026-05-08 05:24 47.69894 -122.28324 3733 ft 217 kts 227°
2026-05-08 05:24 47.68845 -122.29938 3607 ft 217 kts 224°
2026-05-08 05:24 47.67602 -122.31181 3476 ft 217 kts 202°
2026-05-08 05:25 47.66135 -122.31619 3349 ft 217 kts 181°
2026-05-08 05:25 47.64628 -122.31630 3222 ft 217 kts 181°
2026-05-08 05:25 47.63134 -122.31640 3101 ft 209 kts 181°
2026-05-08 05:25 47.61762 -122.31650 3019 ft 188 kts 181°
2026-05-08 05:26 47.60525 -122.31661 3004 ft 172 kts 181°
2026-05-08 05:26 47.59349 -122.31672 2930 ft 168 kts 181°
2026-05-08 05:26 47.58192 -122.31682 2766 ft 165 kts 181°
2026-05-08 05:26 47.57044 -122.31692 2551 ft 164 kts 181°
2026-05-08 05:27 47.55904 -122.31702 2346 ft 163 kts 180°
2026-05-08 05:27 47.54769 -122.31712 2117 ft 163 kts 180°
2026-05-08 05:27 47.53662 -122.31722 1907 ft 152 kts 180°
2026-05-08 05:27 47.52623 -122.31730 1690 ft 147 kts 180°
2026-05-08 05:28 47.51609 -122.31739 1465 ft 145 kts 180°
2026-05-08 05:28 47.50617 -122.31743 1288 ft 144 kts 179°
2026-05-08 05:28 47.49615 -122.31751 1090 ft 144 kts 180°
2026-05-08 05:28 47.48611 -122.31774 872 ft 145 kts 180°
2026-05-08 05:29 47.47599 -122.31777 689 ft 146 kts 179°
2026-05-08 05:29 47.46581 -122.31789 513 ft 146 kts 180°
2026-05-08 05:29 47.45588 -122.31791 409 ft 134 kts 180°
2026-05-08 05:29 47.44859 -122.31801 390 ft 78 kts 180°
2026-05-08 05:30 47.44457 -122.31800 377 ft 48 kts 177°
2026-05-08 05:30 47.44206 -122.31670 370 ft 35 kts 149°
2026-05-08 05:30 47.43998 -122.31495 370 ft 34 kts 149°
2026-05-08 05:30 47.43831 -122.31340 370 ft 20 kts 133°
2026-05-08 05:31 47.43808 -122.31160 371 ft 18 kts 90°
2026-05-08 05:31 47.43807 -122.30982 373 ft 17 kts 90°
2026-05-08 05:31 47.43807 -122.30813 376 ft 18 kts 89°
2026-05-08 05:31 47.43784 -122.30645 377 ft 15 kts 152°
2026-05-08 05:32 47.43723 -122.30569 378 ft 11 kts 91°
2026-05-08 05:32 47.43722 -122.30471 380 ft 11 kts 90°
2026-05-08 05:32 47.43725 -122.30308 381 ft 21 kts 79°
2026-05-08 05:32 47.43757 -122.30102 383 ft 20 kts 78°
2026-05-08 05:33 47.43808 -122.29978 386 ft 7 kts
2026-05-08 05:33 47.43859 -122.29966 387 ft 12 kts 12°
2026-05-08 05:33 47.43911 -122.29946 389 ft 1 kts 53°
2026-05-08 05:33 47.43911 -122.29938 389 ft 2 kts 82°
2026-05-08 05:34 47.43890 -122.29873 389 ft 10 kts 105°
2026-05-08 05:34 47.43886 -122.29848 389 ft 0 kts 100°
2026-05-08 05:34 47.43886 -122.29845 389 ft 0 kts 100°